| time (UTC) | temp C | wind direction | speed KPH | gust KPH | rain 1hr cm | rain 24hr cm | rain mn cm | humidity % | barometer mb |
| 20260506124932 | 10 | 348 | 9.7 | 11.3 | 0.00 | 0.00 | 0.00 | 91 | 1013.4 |
| 20260506124429 | 9 | 24 | 9.7 | 12.9 | 0.00 | 0.00 | 0.00 | 91 | 1013.2 |
| 20260506123927 | 9 | 359 | 8.0 | 9.7 | 0.00 | 0.00 | 0.00 | 92 | 1013.0 |
| 20260506123425 | 9 | 34 | 8.0 | 9.7 | 0.00 | 0.00 | 0.00 | 92 | 1013.0 |
| 20260506122922 | 9 | 31 | 11.3 | 14.5 | 0.00 | 0.00 | 0.00 | 92 | 1012.6 |
| 20260506122419 | 9 | 35 | 9.7 | 11.3 | 0.00 | 0.00 | 0.00 | 91 | 1012.9 |
| 20260506121917 | 10 | 12 | 12.9 | 14.5 | 0.00 | 0.00 | 0.00 | 91 | 1013.0 |
| 20260506121414 | 10 | 21 | 12.9 | 16.1 | 0.00 | 0.00 | 0.00 | 91 | 1012.7 |
| 20260506120911 | 10 | 352 | 14.5 | 16.1 | 0.00 | 0.00 | 0.00 | 90 | 1013.1 |
| 20260506120408 | 10 | 21 | 12.9 | 14.5 | 0.00 | 0.00 | 0.00 | 90 | 1012.9 |
| 20260506115906 | 10 | 4 | 11.3 | 17.7 | 0.00 | 0.00 | 0.00 | 91 | 1012.8 |
| 20260506115404 | 10 | 341 | 14.5 | 22.5 | 0.00 | 0.00 | 0.00 | 90 | 1012.5 |
| 20260506114902 | 10 | 7 | 6.4 | 9.7 | 0.00 | 0.00 | 0.00 | 91 | 1012.8 |
| 20260506114359 | 10 | 344 | 11.3 | 12.9 | 0.00 | 0.00 | 0.00 | 90 | 1012.9 |
| 20260506113858 | 10 | 346 | 11.3 | 17.7 | 0.00 | 0.00 | 0.00 | 90 | 1012.8 |
| 20260506113354 | 10 | 26 | 8.0 | 11.3 | 0.00 | 0.00 | 0.00 | 90 | 1012.7 |
| 20260506112851 | 10 | 335 | 9.7 | 11.3 | 0.00 | 0.00 | 0.00 | 90 | 1012.5 |
| 20260506112348 | 10 | 9 | 6.4 | 9.7 | 0.00 | 0.00 | 0.00 | 90 | 1012.3 |
| 20260506111845 | 10 | 10 | 11.3 | 14.5 | 0.00 | 0.00 | 0.00 | 90 | 1012.3 |
| 20260506111344 | 10 | 353 | 17.7 | 20.9 | 0.00 | 0.00 | 0.00 | 90 | 1012.2 |
| 20260506110841 | 10 | 5 | 11.3 | 14.5 | 0.00 | 0.00 | 0.00 | 89 | 1012.1 |
| 20260506110338 | 10 | 353 | 9.7 | 12.9 | 0.00 | 0.00 | 0.00 | 90 | 1012.0 |
| 20260506105835 | 10 | 34 | 11.3 | 12.9 | 0.00 | 0.00 | 0.00 | 89 | 1011.9 |
| 20260506105331 | 10 | 349 | 11.3 | 12.9 | 0.00 | 0.00 | 0.00 | 89 | 1011.7 |
| 20260506104829 | 10 | 14 | 12.9 | 16.1 | 0.00 | 0.00 | 0.00 | 89 | 1011.5 |
| 20260506104326 | 10 | 355 | 17.7 | 25.7 | 0.00 | 0.00 | 0.00 | 89 | 1011.5 |
| 20260506103824 | 10 | 10 | 14.5 | 17.7 | 0.00 | 0.00 | 0.00 | 89 | 1011.6 |
| 20260506103321 | 10 | 357 | 9.7 | 12.9 | 0.00 | 0.00 | 0.00 | 88 | 1011.7 |
| 20260506102819 | 11 | 14 | 8.0 | 11.3 | 0.00 | 0.00 | 0.00 | 88 | 1011.8 |
| 20260506102316 | 11 | 2 | 14.5 | 17.7 | 0.00 | 0.00 | 0.00 | 87 | 1011.6 |
| 20260506101813 | 11 | 3 | 11.3 | 14.5 | 0.00 | 0.00 | 0.00 | 87 | 1011.5 |
| 20260506101309 | 11 | 336 | 16.1 | 24.1 | 0.00 | 0.00 | 0.00 | 86 | 1011.3 |
| 20260506100807 | 11 | 11 | 11.3 | 14.5 | 0.00 | 0.00 | 0.00 | 86 | 1011.1 |
| 20260506100305 | 11 | 11 | 12.9 | 16.1 | 0.00 | 0.00 | 0.00 | 86 | 1011.0 |
| 20260506095804 | 11 | 35 | 8.0 | 9.7 | 0.00 | 0.00 | 0.00 | 86 | 1010.8 |
| 20260506095300 | 11 | 36 | 9.7 | 11.3 | 0.00 | 0.00 | 0.00 | 86 | 1011.2 |
| 20260506094757 | 12 | 12 | 11.3 | 12.9 | 0.00 | 0.00 | 0.00 | 86 | 1010.9 |
| 20260506094255 | 12 | 7 | 12.9 | 14.5 | 0.00 | 0.00 | 0.00 | 85 | 1010.9 |
| 20260506093753 | 12 | 336 | 11.3 | 12.9 | 0.00 | 0.00 | 0.00 | 85 | 1010.6 |
| 20260506093250 | 12 | 30 | 4.8 | 8.0 | 0.00 | 0.00 | 0.00 | 85 | 1010.5 |
| 20260506092748 | 12 | 7 | 8.0 | 9.7 | 0.00 | 0.00 | 0.00 | 85 | 1010.8 |
| 20260506092246 | 12 | 338 | 4.8 | 8.0 | 0.00 | 0.00 | 0.00 | 84 | 1010.4 |
| 20260506091743 | 12 | 29 | 8.0 | 9.7 | 0.00 | 0.00 | 0.00 | 85 | 1010.5 |
| 20260506091240 | 12 | 337 | 8.0 | 9.7 | 0.00 | 0.00 | 0.00 | 85 | 1010.7 |
| 20260506090738 | 12 | 3 | 3.2 | 3.2 | 0.00 | 0.00 | 0.00 | 85 | 1010.4 |
| 20260506090235 | 12 | 328 | 9.7 | 11.3 | 0.00 | 0.00 | 0.00 | 85 | 1010.5 |
| 20260506085731 | 12 | 349 | 8.0 | 9.7 | 0.00 | 0.00 | 0.00 | 85 | 1010.5 |
| 20260506085228 | 12 | 342 | 6.4 | 8.0 | 0.00 | 0.00 | 0.00 | 85 | 1010.4 |
| 20260506084724 | 12 | 3 | 8.0 | 9.7 | 0.00 | 0.00 | 0.00 | 85 | 1010.5 |
| 20260506084220 | 12 | 6 | 6.4 | 8.0 | 0.00 | 0.00 | 0.00 | 85 | 1010.4 |
| 20260506083718 | 12 | 21 | 6.4 | 11.3 | 0.00 | 0.00 | 0.00 | 84 | 1010.4 |
| 20260506083216 | 12 | 355 | 6.4 | 9.7 | 0.00 | 0.00 | 0.00 | 84 | 1010.4 |
| 20260506082713 | 12 | 33 | 9.7 | 11.3 | 0.00 | 0.00 | 0.00 | 84 | 1010.5 |
| 20260506082208 | 12 | 355 | 8.0 | 9.7 | 0.00 | 0.00 | 0.00 | 85 | 1010.1 |
| 20260506081706 | 12 | 26 | 6.4 | 8.0 | 0.00 | 0.00 | 0.00 | 85 | 1010.1 |
| 20260506081158 | 12 | 7 | 8.0 | 11.3 | 0.00 | 0.00 | 0.00 | 85 | 1010.0 |
| 20260506080656 | 12 | 3 | 12.9 | 16.1 | 0.00 | 0.00 | 0.00 | 85 | 1010.1 |
| 20260506080152 | 12 | 41 | 6.4 | 9.7 | 0.00 | 0.00 | 0.00 | 85 | 1010.0 |
| 20260506073136 | 13 | 9 | 4.8 | 8.0 | 0.00 | 0.00 | 0.00 | 87 | 1010.2 |
| 20260506072633 | 13 | 355 | 6.4 | 8.0 | 0.00 | 0.00 | 0.00 | 86 | 1010.5 |
| 20260506072131 | 13 | 337 | 4.8 | 8.0 | 0.00 | 0.00 | 0.00 | 87 | 1010.5 |
| 20260506071628 | 13 | 330 | 6.4 | 8.0 | 0.00 | 0.00 | 0.00 | 87 | 1010.4 |
| 20260506071126 | 13 | 19 | 4.8 | 8.0 | 0.00 | 0.00 | 0.00 | 87 | 1010.0 |
| 20260506070622 | 13 | 355 | 6.4 | 8.0 | 0.00 | 0.00 | 0.00 | 87 | 1010.2 |
| 20260506070119 | 13 | 11 | 6.4 | 8.0 | 0.00 | 0.00 | 0.00 | 88 | 1010.1 |
| 20260506062057 | 13 | 58 | 4.8 | 8.0 | 0.00 | 0.00 | 0.00 | 86 | 1009.4 |
| 20260506061552 | 13 | 74 | 6.4 | 11.3 | 0.00 | 0.00 | 0.00 | 86 | 1009.4 |
| 20260506061050 | 13 | 20 | 6.4 | 8.0 | 0.00 | 0.00 | 0.00 | 86 | 1009.2 |
| 20260506060549 | 13 | 40 | 6.4 | 8.0 | 0.00 | 0.00 | 0.00 | 86 | 1009.9 |
| 20260506051017 | 14 | 29 | 11.3 | 12.9 | 0.00 | 0.00 | 0.00 | 84 | 1009.7 |
| 20260506050515 | 14 | 21 | 8.0 | 9.7 | 0.00 | 0.00 | 0.00 | 84 | 1010.1 |
| 20260506045005 | 14 | 27 | 11.3 | 12.9 | 0.00 | 0.00 | 0.00 | 83 | 1009.9 |
| 20260506044503 | 14 | 25 | 4.8 | 8.0 | 0.00 | 0.00 | 0.00 | 83 | 1009.9 |
| 20260506043959 | 14 | 333 | 14.5 | 16.1 | 0.00 | 0.00 | 0.00 | 83 | 1010.0 |
| 20260506043456 | 15 | 315 | 12.9 | 16.1 | 0.00 | 0.00 | 0.00 | 83 | 1009.8 |
| 20260506042954 | 15 | 0 | 11.3 | 12.9 | 0.00 | 0.00 | 0.00 | 83 | 1010.0 |
| 20260506042449 | 15 | 29 | 8.0 | 8.0 | 0.00 | 0.00 | 0.00 | 83 | 1009.8 |
| 20260506041946 | 15 | 357 | 4.8 | 4.8 | 0.00 | 0.00 | 0.00 | 83 | 1009.7 |
| 20260506041444 | 15 | 348 | 8.0 | 9.7 | 0.00 | 0.00 | 0.00 | 83 | 1009.4 |
| 20260506040941 | 15 | 351 | 8.0 | 11.3 | 0.00 | 0.00 | 0.00 | 83 | 1009.8 |
| 20260506040438 | 15 | 352 | 11.3 | 14.5 | 0.00 | 0.00 | 0.00 | 83 | 1009.9 |
| 20260506035934 | 15 | 357 | 6.4 | 8.0 | 0.00 | 0.00 | 0.00 | 82 | 1009.9 |
| 20260506035432 | 15 | 328 | 11.3 | 14.5 | 0.00 | 0.00 | 0.00 | 82 | 1009.7 |
| 20260506034928 | 15 | 349 | 11.3 | 14.5 | 0.00 | 0.00 | 0.00 | 81 | 1009.9 |
| 20260506034426 | 15 | 341 | 9.7 | 11.3 | 0.00 | 0.00 | 0.00 | 81 | 1009.9 |
| 20260506033923 | 15 | 359 | 9.7 | 11.3 | 0.00 | 0.00 | 0.00 | 80 | 1009.9 |
| 20260506033420 | 15 | 344 | 8.0 | 12.9 | 0.00 | 0.00 | 0.00 | 80 | 1009.7 |
| 20260506032917 | 16 | 4 | 8.0 | 11.3 | 0.00 | 0.00 | 0.00 | 80 | 1009.8 |
| 20260506032414 | 16 | 346 | 9.7 | 12.9 | 0.00 | 0.00 | 0.00 | 80 | 1009.3 |
| 20260506031910 | 16 | 15 | 9.7 | 12.9 | 0.00 | 0.00 | 0.00 | 80 | 1009.5 |
| 20260506031408 | 16 | 37 | 11.3 | 12.9 | 0.00 | 0.00 | 0.00 | 80 | 1009.0 |
| 20260506030905 | 16 | 22 | 9.7 | 12.9 | 0.00 | 0.00 | 0.00 | 80 | 1008.9 |
| 20260506030403 | 16 | 16 | 8.0 | 11.3 | 0.00 | 0.00 | 0.00 | 80 | 1008.5 |
| 20260506025900 | 16 | 3 | 11.3 | 12.9 | 0.00 | 0.00 | 0.00 | 79 | 1008.7 |
| 20260506025356 | 16 | 11 | 11.3 | 14.5 | 0.00 | 0.00 | 0.00 | 79 | 1008.7 |
| 20260506024854 | 16 | 37 | 9.7 | 12.9 | 0.00 | 0.00 | 0.00 | 79 | 1008.7 |
| 20260506024351 | 16 | 339 | 9.7 | 11.3 | 0.00 | 0.00 | 0.00 | 79 | 1008.6 |
| 20260506023846 | 17 | 8 | 9.7 | 11.3 | 0.00 | 0.00 | 0.00 | 79 | 1008.6 |
| 20260506023344 | 17 | 13 | 14.5 | 16.1 | 0.00 | 0.00 | 0.00 | 79 | 1008.4 |
| 20260506022840 | 17 | 12 | 8.0 | 12.9 | 0.00 | 0.00 | 0.00 | 80 | 1008.2 |
| 20260506022338 | 17 | 9 | 8.0 | 12.9 | 0.00 | 0.00 | 0.00 | 80 | 1007.5 |
| 20260506021836 | 17 | 338 | 12.9 | 16.1 | 0.00 | 0.00 | 0.00 | 79 | 1007.9 |
| 20260506021332 | 17 | 6 | 9.7 | 12.9 | 0.00 | 0.00 | 0.00 | 79 | 1007.8 |
| 20260506020829 | 17 | 12 | 9.7 | 11.3 | 0.00 | 0.00 | 0.00 | 78 | 1007.7 |
| 20260506020327 | 17 | 346 | 11.3 | 14.5 | 0.00 | 0.00 | 0.00 | 78 | 1007.7 |
| 20260506015824 | 17 | 39 | 8.0 | 9.7 | 0.00 | 0.00 | 0.00 | 78 | 1007.3 |
| 20260506015322 | 17 | 38 | 8.0 | 9.7 | 0.00 | 0.00 | 0.00 | 78 | 1007.5 |
| 20260506014818 | 17 | 353 | 8.0 | 9.7 | 0.00 | 0.00 | 0.00 | 77 | 1007.5 |
| 20260506014315 | 18 | 357 | 4.8 | 9.7 | 0.00 | 0.00 | 0.00 | 77 | 1007.6 |
| 20260506013812 | 18 | 332 | 8.0 | 12.9 | 0.00 | 0.00 | 0.00 | 77 | 1007.5 |
| 20260506013309 | 18 | 5 | 6.4 | 8.0 | 0.00 | 0.00 | 0.00 | 76 | 1007.0 |
| 20260506012806 | 18 | 23 | 6.4 | 8.0 | 0.00 | 0.00 | 0.00 | 75 | 1007.0 |
| 20260506012307 | 18 | 3 | 11.3 | 14.5 | 0.00 | 0.00 | 0.00 | 75 | 1006.7 |
| 20260506011800 | 18 | 358 | 6.4 | 8.0 | 0.00 | 0.00 | 0.00 | 75 | 1006.8 |
| 20260506011256 | 18 | 331 | 8.0 | 9.7 | 0.00 | 0.00 | 0.00 | 75 | 1006.8 |
| 20260506010754 | 18 | 3 | 12.9 | 17.7 | 0.00 | 0.00 | 0.00 | 75 | 1006.6 |
| 20260506010252 | 19 | 359 | 14.5 | 17.7 | 0.00 | 0.00 | 0.00 | 75 | 1006.2 |
| 20260506005749 | 19 | 33 | 11.3 | 17.7 | 0.00 | 0.00 | 0.00 | 75 | 1006.2 |
| 20260506005245 | 19 | 32 | 9.7 | 11.3 | 0.00 | 0.00 | 0.00 | 75 | 1005.8 |
| 20260506004741 | 20 | 358 | 8.0 | 12.9 | 0.00 | 0.00 | 0.00 | 74 | 1006.0 |
| 20260506004239 | 20 | 42 | 9.7 | 12.9 | 0.00 | 0.00 | 0.00 | 74 | 1005.8 |
| 20260506003735 | 20 | 355 | 9.7 | 11.3 | 0.00 | 0.00 | 0.00 | 72 | 1005.5 |
| 20260506003231 | 20 | 350 | 14.5 | 16.1 | 0.00 | 0.00 | 0.00 | 72 | 1005.7 |
| 20260506002727 | 20 | 349 | 11.3 | 14.5 | 0.00 | 0.00 | 0.00 | 72 | 1006.0 |
| 20260506002224 | 20 | 11 | 12.9 | 14.5 | 0.00 | 0.00 | 0.00 | 71 | 1005.9 |
| 20260506001720 | 21 | 16 | 8.0 | 8.0 | 0.00 | 0.00 | 0.00 | 71 | 1005.7 |
| 20260506001217 | 21 | 24 | 9.7 | 11.3 | 0.00 | 0.00 | 0.00 | 70 | 1005.5 |
| 20260506000714 | 21 | 356 | 8.0 | 11.3 | 0.00 | 0.00 | 0.00 | 70 | 1005.8 |
| 20260506000212 | 21 | 12 | 8.0 | 11.3 | 0.00 | 0.00 | 0.00 | 70 | 1005.8 |
| 20260505235709 | 21 | 346 | 14.5 | 16.1 | 0.00 | 0.00 | 0.00 | 69 | 1005.9 |
| 20260505235207 | 21 | 18 | 9.7 | 11.3 | 0.00 | 0.00 | 0.00 | 68 | 1005.8 |
| 20260505234703 | 21 | 356 | 11.3 | 14.5 | 0.00 | 0.00 | 0.00 | 67 | 1005.8 |
| 20260505234200 | 21 | 6 | 9.7 | 12.9 | 0.00 | 0.00 | 0.00 | 68 | 1005.5 |
| 20260505233656 | 22 | 1 | 8.0 | 9.7 | 0.00 | 0.00 | 0.00 | 69 | 1005.7 |
| 20260505233155 | 22 | 5 | 11.3 | 12.9 | 0.00 | 0.00 | 0.00 | 68 | 1005.4 |
| 20260505232652 | 22 | 0 | 11.3 | 14.5 | 0.00 | 0.00 | 0.00 | 68 | 1005.6 |
| 20260505232149 | 22 | 13 | 12.9 | 16.1 | 0.00 | 0.00 | 0.00 | 68 | 1005.4 |
| 20260505231645 | 22 | 351 | 12.9 | 16.1 | 0.00 | 0.00 | 0.00 | 67 | 1005.5 |
| 20260505231144 | 23 | 9 | 17.7 | 20.9 | 0.00 | 0.00 | 0.00 | 66 | 1005.4 |
| 20260505230637 | 23 | 342 | 12.9 | 14.5 | 0.00 | 0.00 | 0.00 | 67 | 1005.3 |
| 20260505230133 | 23 | 13 | 8.0 | 11.3 | 0.00 | 0.00 | 0.00 | 66 | 1005.4 |
| 20260505225629 | 23 | 358 | 8.0 | 9.7 | 0.00 | 0.00 | 0.00 | 65 | 1005.3 |
| 20260505225126 | 24 | 31 | 12.9 | 16.1 | 0.00 | 0.00 | 0.00 | 64 | 1005.4 |
| 20260505224622 | 25 | 21 | 11.3 | 14.5 | 0.00 | 0.00 | 0.00 | 63 | 1005.0 |
| 20260505224120 | 25 | 14 | 11.3 | 20.9 | 0.00 | 0.00 | 0.00 | 61 | 1005.1 |
| 20260505223617 | 25 | 29 | 11.3 | 12.9 | 0.00 | 0.00 | 0.00 | 60 | 1005.2 |
| 20260505223113 | 25 | 25 | 11.3 | 12.9 | 0.00 | 0.00 | 0.00 | 62 | 1005.3 |
| 20260505222610 | 26 | 313 | 8.0 | 11.3 | 0.00 | 0.00 | 0.00 | 63 | 1004.8 |
| 20260505222106 | 26 | 349 | 9.7 | 12.9 | 0.00 | 0.00 | 0.00 | 62 | 1005.0 |
| 20260505221603 | 27 | 15 | 12.9 | 14.5 | 0.00 | 0.00 | 0.00 | 60 | 1005.0 |
| 20260505221059 | 27 | 339 | 9.7 | 11.3 | 0.00 | 0.00 | 0.00 | 61 | 1004.9 |
| 20260505220556 | 27 | 15 | 9.7 | 11.3 | 0.00 | 0.00 | 0.00 | 60 | 1004.8 |
| 20260505220054 | 27 | 331 | 8.0 | 11.3 | 0.00 | 0.00 | 0.00 | 60 | 1004.6 |
| 20260505215552 | 28 | 15 | 11.3 | 12.9 | 0.00 | 0.00 | 0.00 | 56 | 1004.9 |
| 20260505215050 | 28 | 354 | 9.7 | 12.9 | 0.00 | 0.00 | 0.00 | 56 | 1004.8 |
| 20260505214548 | 28 | 6 | 14.5 | 16.1 | 0.00 | 0.00 | 0.00 | 54 | 1004.7 |
| 20260505214044 | 28 | 10 | 8.0 | 11.3 | 0.00 | 0.00 | 0.00 | 53 | 1004.7 |
| 20260505213542 | 29 | 43 | 8.0 | 9.7 | 0.00 | 0.00 | 0.00 | 49 | 1004.6 |
| 20260505213038 | 29 | 27 | 6.4 | 8.0 | 0.00 | 0.00 | 0.00 | 48 | 1004.8 |
| 20260505212535 | 30 | 39 | 8.0 | 11.3 | 0.00 | 0.00 | 0.00 | 45 | 1004.8 |
| 20260505212032 | 30 | 352 | 8.0 | 9.7 | 0.00 | 0.00 | 0.00 | 46 | 1004.8 |
| 20260505211529 | 30 | 0 | 6.4 | 9.7 | 0.00 | 0.00 | 0.00 | 45 | 1004.8 |
| 20260505211026 | 30 | 39 | 6.4 | 9.7 | 0.00 | 0.00 | 0.00 | 49 | 1004.9 |
| 20260505210522 | 30 | 333 | 8.0 | 16.1 | 0.00 | 0.00 | 0.00 | 47 | 1004.8 |
| 20260505210020 | 30 | 48 | 8.0 | 12.9 | 0.00 | 0.00 | 0.00 | 48 | 1005.0 |
| 20260505205518 | 30 | 344 | 11.3 | 12.9 | 0.00 | 0.00 | 0.00 | 47 | 1004.7 |
| 20260505205014 | 29 | 358 | 8.0 | 11.3 | 0.00 | 0.00 | 0.00 | 50 | 1004.7 |
| 20260505204512 | 29 | 340 | 12.9 | 14.5 | 0.00 | 0.00 | 0.00 | 48 | 1005.0 |
| 20260505204009 | 30 | 358 | 12.9 | 14.5 | 0.00 | 0.00 | 0.00 | 49 | 1004.9 |
| 20260505203506 | 30 | 282 | 11.3 | 14.5 | 0.00 | 0.00 | 0.00 | 49 | 1005.1 |
| 20260505203003 | 30 | 269 | 4.8 | 8.0 | 0.00 | 0.00 | 0.00 | 55 | 1005.1 |
| 20260505202459 | 30 | 260 | 6.4 | 8.0 | 0.00 | 0.00 | 0.00 | 53 | 1005.1 |
| 20260505201954 | 30 | 254 | 8.0 | 9.7 | 0.00 | 0.00 | 0.00 | 52 | 1004.8 |
| 20260505201452 | 30 | 277 | 6.4 | 8.0 | 0.00 | 0.00 | 0.00 | 54 | 1005.0 |
| 20260505200949 | 30 | 315 | 8.0 | 9.7 | 0.00 | 0.00 | 0.00 | 53 | 1004.9 |
| 20260505200447 | 30 | 246 | 6.4 | 9.7 | 0.00 | 0.00 | 0.00 | 53 | 1005.1 |
| 20260505195943 | 30 | 297 | 8.0 | 11.3 | 0.00 | 0.00 | 0.00 | 52 | 1005.2 |
| 20260505195440 | 30 | 271 | 12.9 | 14.5 | 0.00 | 0.00 | 0.00 | 51 | 1005.3 |
| 20260505194937 | 30 | 281 | 8.0 | 9.7 | 0.00 | 0.00 | 0.00 | 52 | 1005.4 |
| 20260505194435 | 30 | 292 | 9.7 | 11.3 | 0.00 | 0.00 | 0.00 | 52 | 1005.3 |
| 20260505193934 | 30 | 253 | 8.0 | 9.7 | 0.00 | 0.00 | 0.00 | 55 | 1005.4 |
| 20260505193432 | 30 | 294 | 9.7 | 12.9 | 0.00 | 0.00 | 0.00 | 54 | 1005.4 |
| 20260505192930 | 30 | 241 | 8.0 | 9.7 | 0.00 | 0.00 | 0.00 | 56 | 1005.5 |
| 20260505192428 | 30 | 225 | 8.0 | 9.7 | 0.00 | 0.00 | 0.00 | 57 | 1005.4 |
| 20260505191925 | 30 | 243 | 6.4 | 8.0 | 0.00 | 0.00 | 0.00 | 60 | 1005.5 |
| 20260505191424 | 29 | 249 | 8.0 | 11.3 | 0.00 | 0.00 | 0.00 | 61 | 1005.2 |
| 20260505190920 | 29 | 257 | 12.9 | 14.5 | 0.00 | 0.00 | 0.00 | 59 | 1005.4 |
| 20260505190416 | 30 | 267 | 12.9 | 14.5 | 0.00 | 0.00 | 0.00 | 58 | 1005.2 |
| 20260505185911 | 30 | 229 | 6.4 | 8.0 | 0.00 | 0.00 | 0.00 | 63 | 1005.4 |
| 20260505185409 | 29 | 249 | 9.7 | 12.9 | 0.00 | 0.00 | 0.00 | 62 | 1005.4 |
| 20260505184904 | 28 | 253 | 9.7 | 11.3 | 0.00 | 0.00 | 0.00 | 61 | 1005.3 |
| 20260505184401 | 28 | 235 | 8.0 | 11.3 | 0.00 | 0.00 | 0.00 | 65 | 1005.2 |
| 20260505183859 | 28 | 242 | 8.0 | 9.7 | 0.00 | 0.00 | 0.00 | 64 | 1005.3 |
| 20260505183355 | 28 | 198 | 11.3 | 16.1 | 0.00 | 0.00 | 0.00 | 64 | 1005.2 |
| 20260505182852 | 28 | 229 | 9.7 | 12.9 | 0.00 | 0.00 | 0.00 | 66 | 1005.1 |
| 20260505182349 | 28 | 239 | 11.3 | 14.5 | 0.00 | 0.00 | 0.00 | 65 | 1005.0 |
| 20260505181845 | 27 | 258 | 9.7 | 11.3 | 0.00 | 0.00 | 0.00 | 66 | 1005.3 |
| 20260505181343 | 28 | 205 | 16.1 | 17.7 | 0.00 | 0.00 | 0.00 | 64 | 1005.0 |
| 20260505180839 | 27 | 210 | 12.9 | 14.5 | 0.00 | 0.00 | 0.00 | 66 | 1005.4 |
| 20260505180336 | 27 | 198 | 11.3 | 12.9 | 0.00 | 0.00 | 0.00 | 67 | 1005.5 |
| 20260505175833 | 27 | 234 | 12.9 | 14.5 | 0.00 | 0.00 | 0.00 | 67 | 1005.4 |
| 20260505175329 | 27 | 236 | 14.5 | 17.7 | 0.00 | 0.00 | 0.00 | 67 | 1005.3 |
| 20260505174825 | 27 | 237 | 14.5 | 14.5 | 0.00 | 0.00 | 0.00 | 67 | 1005.7 |
| 20260505174323 | 27 | 222 | 12.9 | 14.5 | 0.00 | 0.00 | 0.00 | 69 | 1005.5 |
| 20260505173819 | 27 | 222 | 19.3 | 22.5 | 0.00 | 0.00 | 0.00 | 67 | 1005.4 |
| 20260505173315 | 27 | 219 | 14.5 | 16.1 | 0.00 | 0.00 | 0.00 | 68 | 1005.3 |
| 20260505172813 | 27 | 208 | 16.1 | 20.9 | 0.00 | 0.00 | 0.00 | 69 | 1005.3 |
| 20260505172310 | 27 | 223 | 12.9 | 16.1 | 0.00 | 0.00 | 0.00 | 71 | 1005.2 |
| 20260505171804 | 27 | 219 | 12.9 | 14.5 | 0.00 | 0.00 | 0.00 | 73 | 1005.4 |
| 20260505171302 | 27 | 221 | 14.5 | 16.1 | 0.00 | 0.00 | 0.00 | 72 | 1005.2 |
| 20260505170758 | 26 | 204 | 14.5 | 14.5 | 0.00 | 0.00 | 0.00 | 73 | 1005.2 |
| 20260505170255 | 26 | 232 | 9.7 | 11.3 | 0.00 | 0.00 | 0.00 | 74 | 1005.4 |
| 20260505165756 | 26 | 228 | 12.9 | 14.5 | 0.00 | 0.00 | 0.00 | 72 | 1005.3 |
| 20260505165252 | 26 | 202 | 16.1 | 22.5 | 0.00 | 0.00 | 0.00 | 72 | 1005.4 |
| 20260505164748 | 26 | 207 | 16.1 | 22.5 | 0.00 | 0.00 | 0.00 | 72 | 1005.3 |
| 20260505164245 | 26 | 219 | 11.3 | 16.1 | 0.00 | 0.00 | 0.00 | 74 | 1005.4 |
| 20260505163743 | 26 | 219 | 20.9 | 22.5 | 0.00 | 0.00 | 0.00 | 71 | 1005.5 |
| 20260505163241 | 26 | 203 | 16.1 | 20.9 | 0.00 | 0.00 | 0.00 | 70 | 1005.2 |
| 20260505162737 | 26 | 246 | 11.3 | 14.5 | 0.00 | 0.00 | 0.00 | 71 | 1005.4 |
| 20260505162234 | 26 | 244 | 11.3 | 12.9 | 0.00 | 0.00 | 0.00 | 71 | 1005.2 |
| 20260505161731 | 26 | 189 | 14.5 | 16.1 | 0.00 | 0.00 | 0.00 | 74 | 1005.1 |
| 20260505161230 | 26 | 210 | 16.1 | 20.9 | 0.00 | 0.00 | 0.00 | 73 | 1005.0 |
| 20260505160726 | 26 | 244 | 14.5 | 16.1 | 0.00 | 0.00 | 0.00 | 72 | 1004.8 |
| 20260505160225 | 26 | 247 | 17.7 | 17.7 | 0.00 | 0.00 | 0.00 | 72 | 1004.9 |
| 20260505153203 | 24 | 239 | 12.9 | 14.5 | 0.00 | 0.00 | 0.00 | 78 | 1004.7 |
| 20260505152700 | 23 | 219 | 11.3 | 14.5 | 0.00 | 0.00 | 0.00 | 80 | 1005.0 |
| 20260505152156 | 23 | 223 | 12.9 | 14.5 | 0.00 | 0.00 | 0.00 | 80 | 1005.0 |
| 20260505151651 | 23 | 191 | 17.7 | 20.9 | 0.00 | 0.00 | 0.00 | 80 | 1004.8 |
| 20260505151149 | 23 | 214 | 19.3 | 22.5 | 0.00 | 0.00 | 0.00 | 80 | 1005.0 |
| 20260505150645 | 23 | 202 | 17.7 | 22.5 | 0.00 | 0.00 | 0.00 | 81 | 1004.8 |
| 20260505150143 | 23 | 220 | 11.3 | 14.5 | 0.00 | 0.00 | 0.00 | 82 | 1004.8 |
| 20260505140611 | 21 | 203 | 14.5 | 16.1 | 0.00 | 0.00 | 0.00 | 87 | 1005.1 |
| 20260505140108 | 20 | 201 | 9.7 | 11.3 | 0.00 | 0.00 | 0.00 | 89 | 1004.7 |